[[{"header":{"parameterUnit":"m.s-1","parameterCategory":1,"la1":30.2991,"la2":30.254,"lo1":-89.0895,"lo2":-89.0444,"dy":0.0017,"dx":0.0017,"nx":28,"ny":28,"refTime":"2024-04-22T03:00:00:Z","depth":0,"parameterNumber":2,"parameterNumberName":"U-component_of_WINDS"},"data":[0,0,0,0,0,0,0,0,0,0,0,0,0,0,0,0,0,0,0,0,0,0,0,0,0,0,0,0,0,0,0,0,0,0,0,0,0,0,0,0,0,0,0,0,0,0,0,0,0,0,0,0,0,0,0,0,0,0,1.1021,1.1021,0,1.1003,1.1003,1.1003,1.1005,1.1006,1.1006,1.1006,1.0984,1.0983,1.0982,0,0,0,0,0,0,0,0,0,0,0,0,0,1.1056,1.1055,1.1021,1.1021,1.1021,1.1003,1.1003,1.1003,1.1005,1.1006,1.1006,1.1006,1.0984,1.0983,1.0982,0,0,0,0,0,0,0,0,0,0,0,0,0,1.1039,1.1055,1.1021,1.102,1.102,1.1004,1.1003,1.1003,1.1005,1.1006,1.1006,1.1007,1.0985,1.0983,1.0982,1.0965,0,0,1.0978,1.0978,0,0,0,0,0,0,0,0,1.104,1.1038,1.1021,1.102,1.102,1.1007,1.1007,1.099,1.1005,1.1011,1.1006,1.1007,1.0991,1.0989,1.0985,1.0964,1.0963,1.0978,1.0977,1.0977,1.0976,0,0,0,0,0,0,0,1.1041,1.1039,1.1014,1.102,1.102,1.102,1.1018,1.1004,1.0998,1.101,1.101,1.1008,1.0991,1.0986,1.0984,1.0962,1.0978,1.0977,1.0976,1.0976,1.0927,1.0927,0,0,0,0,0,0,1.1043,1.104,1.1015,1.1014,1.1032,1.1019,1.1017,1.1011,1.0999,1.0997,1.1008,1.1009,1.0988,1.0986,1.0984,1.0963,1.0977,1.0975,1.0975,1.0928,1.0927,1.0927,0,0,0,0,0,0,1.1044,1.1041,1.1015,1.1027,1.1024,1.1018,1.1011,1.101,1.1005,1.0997,1.0996,1.1004,1.0988,1.0985,1.097,1.0962,1.0975,1.0974,1.0928,1.0927,1.0927,1.0921,0,0,0,0,0,0,1.1045,1.1041,1.1035,1.1027,1.1023,1.1003,1.101,1.1009,1.1003,1.1004,1.0993,1.0992,1.0989,1.0972,1.0969,1.096,1.0973,1.0929,1.0928,1.0927,1.0921,1.092,1.0918,0,0,0,0,0,1.1046,1.1033,1.1035,1.1032,1.1015,1.1002,1.1,1.0998,1.1003,1.0996,1.0991,1.0992,1.0964,1.097,1.0967,1.0958,1.0929,1.0928,1.0927,1.0922,1.092,1.0918,0,0,0,0,0,0,1.1039,1.1032,1.1034,1.1017,1.1011,1.1003,1.0994,1.0996,1.0986,1.0987,1.0984,1.0981,1.0965,1.096,1.0968,1.0941,1.0947,1.0945,1.0945,1.0943,1.0941,1.0942,1.0972,0,0,0,0,0,1.1036,1.1027,1.1021,1.1007,1.1004,1.1,1.0994,1.0993,1.0985,1.0982,1.0976,1.0967,1.0957,1.095,1.0939,1.0921,1.0919,1.0914,1.0912,1.0911,1.0909,1.0899,1.0897,1.0923,1.0923,1.0923,0,0,1.1028,1.1023,1.1017,1.1006,1.1,1.099,1.0997,1.0986,1.0978,1.098,1.0965,1.0961,1.0951,1.0935,1.0927,1.093,1.0901,1.0909,1.0908,1.0907,1.0898,1.0895,1.0893,1.0922,1.0922,1.0922,0,0,1.1009,1.1005,1.0994,1.0989,1.0981,1.0979,1.0976,1.0969,1.0966,1.0952,1.0953,1.0944,1.0925,1.0919,1.0913,1.0894,1.0894,1.0891,1.0882,1.0873,1.0871,1.0869,1.0862,1.0859,1.0889,1.0889,1.0889,0,1.1001,1.0987,1.0987,1.0976,1.0971,1.0974,1.0962,1.0957,1.0946,1.0942,1.0946,1.0924,1.0917,1.09,1.0895,1.0891,1.0887,1.0891,1.0871,1.0869,1.0868,1.0861,1.0858,1.0889,1.0889,1.0889,1.0889,0,1.0976,1.0967,1.0958,1.0949,1.0943,1.0932,1.093,1.0923,1.0924,1.0921,1.0907,1.09,1.0889,1.0885,1.0884,1.0867,1.0869,1.0872,1.0878,1.0865,1.0858,1.0856,1.0888,1.0888,1.0888,1.0889,0,0,1.095,1.0943,1.094,1.0936,1.0929,1.0921,1.0911,1.0901,1.0896,1.0889,1.0879,1.0865,1.0868,1.0861,1.086,1.0853,1.0838,1.0857,1.0857,1.0853,1.0819,1.0816,1.0813,1.0839,1.0839,1.0839,1.082,0,1.093,1.0912,1.0913,1.0895,1.0886,1.089,1.0881,1.0875,1.0873,1.0865,1.0862,1.0851,1.0857,1.0853,1.0846,1.0842,1.0831,1.0843,1.0829,1.0829,1.083,1.0809,1.0806,1.0788,1.0817,1.0817,1.0816,0,1.0904,1.0897,1.0879,1.0875,1.0871,1.0863,1.0855,1.0847,1.0841,1.084,1.0834,1.0835,1.0824,1.0831,1.0815,1.0824,1.0818,1.0816,1.0815,1.0812,1.0821,1.0805,1.0782,1.0779,1.0812,1.0813,1.0813,0,1.0885,1.0873,1.0861,1.0857,1.0852,1.0846,1.0843,1.0838,1.0833,1.0826,1.0822,1.0813,1.0808,1.0801,1.08,1.0806,1.0784,1.0791,1.0782,1.0782,1.0775,1.0775,1.075,1.0774,1.0774,1.0774,1.0774,0,1.0862,1.0851,1.0852,1.0845,1.0832,1.0834,1.0821,1.0819,1.0815,1.0806,1.0809,1.0801,1.08,1.0792,1.0791,1.0778,1.0776,1.0774,1.0773,1.0773,1.0773,1.0768,1.0769,1.0773,1.0774,1.0774,1.0774,0,1.0839,1.084,1.0827,1.0824,1.0823,1.0813,1.0811,1.0803,1.0802,1.0792,1.0789,1.0787,1.0778,1.0776,1.0764,1.0764,1.0748,1.0749,1.075,1.075,1.074,1.0741,1.0709,1.0705,1.0733,1.0733,1.0733,0,1.0823,1.0815,1.0812,1.0807,1.0805,1.0797,1.0792,1.0794,1.0788,1.0782,1.0775,1.0767,1.0759,1.0744,1.0741,1.0732,1.0733,1.0723,1.0731,1.0731,1.0732,1.0732,1.0731,1.072,1.072,1.072,1.072,0,1.0795,1.0797,1.079,1.0784,1.0779,1.0774,1.0769,1.0765,1.0766,1.076,1.0751,1.0746,1.0736,1.0726,1.0719,1.0715,1.0717,1.0717,1.0715,1.0713,1.0714,1.0713,1.0744,1.0717,1.0718,1.0718,1.0718,1.0718,1.0774,1.0767,1.0765,1.0758,1.0755,1.0751,1.0744,1.0744,1.0737,1.0729,1.073,1.0721,1.0716,1.0706,1.0702,1.0694,1.0697,1.0693,1.0692,1.069,1.0689,1.0717,1.0693,1.0693,1.0693,1.0693,1.0693,0,1.0746,1.0745,1.0739,1.0733,1.0728,1.0733,1.0728,1.0723,1.0715,1.0711,1.0705,1.0695,1.0687,1.0685,1.0677,1.0671,1.0671,1.0668,1.0668,1.0667,1.0687,1.069,1.0668,1.0668,1.0668,1.0668,1.0668,1.0668,1.073,1.0719,1.072,1.0708,1.0707,1.0698,1.0695,1.0692,1.0689,1.0678,1.0672,1.0671,1.0668,1.066,1.0653,1.0653,1.0649,1.0645,1.0645,1.0663,1.0666,1.0668,1.0671,1.0645,1.0645,1.0626,1.0625,1.0625]},{"header":{"parameterUnit":"m.s-1","parameterCategory":1,"la1":30.2991,"la2":30.254,"lo1":-89.0895,"lo2":-89.0444,"dy":0.0017,"dx":0.0017,"nx":28,"ny":28,"refTime":"2024-04-22T03:00:00:Z","depth":0,"parameterNumber":3,"parameterNumberName":"V-component_of_WINDS"},"data":[0,0,0,0,0,0,0,0,0,0,0,0,0,0,0,0,0,0,0,0,0,0,0,0,0,0,0,0,0,0,0,0,0,0,0,0,0,0,0,0,0,0,0,0,0,0,0,0,0,0,0,0,0,0,0,0,0,0,-7.5925,-7.5926,0,-7.5975,-7.5976,-7.5976,-7.5826,-7.5821,-7.5817,-7.5812,-7.5859,-7.5865,-7.587,0,0,0,0,0,0,0,0,0,0,0,0,0,-7.5695,-7.57,-7.5925,-7.5926,-7.5926,-7.5975,-7.5976,-7.5977,-7.5827,-7.5821,-7.5815,-7.581,-7.5858,-7.5864,-7.5871,0,0,0,0,0,0,0,0,0,0,0,0,0,-7.5775,-7.5701,-7.5925,-7.5858,-7.5852,-7.5975,-7.5976,-7.5977,-7.5828,-7.5821,-7.5814,-7.5808,-7.5855,-7.5864,-7.5872,-7.6061,0,0,-7.5897,-7.5901,0,0,0,0,0,0,0,0,-7.577,-7.5783,-7.5867,-7.5862,-7.5856,-7.5887,-7.5912,-7.6005,-7.583,-7.5837,-7.5812,-7.5804,-7.5874,-7.588,-7.5905,-7.6063,-7.6065,-7.5898,-7.5903,-7.5906,-7.5909,0,0,0,0,0,0,0,-7.5765,-7.578,-7.5945,-7.5868,-7.5862,-7.5823,-7.5827,-7.5929,-7.5893,-7.5836,-7.5825,-7.5833,-7.587,-7.5897,-7.5905,-7.6066,-7.5898,-7.5905,-7.591,-7.5913,-7.6381,-7.6388,0,0,0,0,0,0,-7.5769,-7.5777,-7.5943,-7.5946,-7.5796,-7.5833,-7.5837,-7.5884,-7.5892,-7.5886,-7.5839,-7.5826,-7.5886,-7.5895,-7.5906,-7.6128,-7.5906,-7.5914,-7.5919,-7.6374,-7.6383,-7.6391,0,0,0,0,0,0,-7.5765,-7.5785,-7.5941,-7.5859,-7.5876,-7.5844,-7.5898,-7.5889,-7.5916,-7.5894,-7.5887,-7.5874,-7.5881,-7.5894,-7.6024,-7.6127,-7.5918,-7.5925,-7.6365,-7.6377,-7.6387,-7.6573,0,0,0,0,0,0,-7.5759,-7.5785,-7.5857,-7.5862,-7.5881,-7.606,-7.5905,-7.5895,-7.5931,-7.5915,-7.5925,-7.592,-7.5877,-7.6012,-7.6032,-7.6135,-7.5932,-7.6356,-7.637,-7.6383,-7.6558,-7.659,-7.6617,0,0,0,0,0,-7.5751,-7.5907,-7.5862,-7.5883,-7.5971,-7.6066,-7.6077,-7.6025,-7.594,-7.6012,-7.5998,-7.592,-7.6113,-7.6027,-7.6048,-7.6155,-7.6349,-7.6366,-7.6382,-7.6545,-7.6583,-7.6616,0,0,0,0,0,0,-7.5914,-7.5906,-7.5856,-7.6018,-7.6045,-7.6041,-7.613,-7.6068,-7.6118,-7.61,-7.6032,-7.6036,-7.6178,-7.6178,-7.6083,-7.6338,-7.6216,-7.6238,-7.6332,-7.6369,-7.6398,-7.6394,-7.5939,0,0,0,0,0,-7.5969,-7.6049,-7.6037,-7.6181,-7.6197,-7.6162,-7.6201,-7.616,-7.6183,-7.6193,-7.6188,-7.6213,-7.6279,-7.6324,-7.6383,-7.6557,-7.6557,-7.6641,-7.667,-7.6695,-7.6714,-7.6806,-7.6843,-7.6446,-7.6446,-7.6446,0,0,-7.6083,-7.6089,-7.6143,-7.6214,-7.6229,-7.6312,-7.6172,-7.6265,-7.6325,-7.6206,-7.6329,-7.6327,-7.6349,-7.6502,-7.6569,-7.6508,-7.6824,-7.6716,-7.6736,-7.6742,-7.6827,-7.6865,-7.6898,-7.6457,-7.6455,-7.6453,0,0,-7.6333,-7.6346,-7.6468,-7.6486,-7.6512,-7.6487,-7.6517,-7.6523,-7.6517,-7.664,-7.6552,-7.6622,-7.6737,-7.6757,-7.6783,-7.7041,-7.697,-7.7062,-7.7216,-7.7306,-7.7338,-7.7365,-7.7457,-7.7491,-7.7082,-7.7082,-7.7083,0,-7.6471,-7.6594,-7.6538,-7.6638,-7.6671,-7.6569,-7.6691,-7.6711,-7.6754,-7.6779,-7.6709,-7.6852,-7.686,-7.7016,-7.708,-7.7104,-7.7134,-7.7061,-7.7338,-7.7365,-7.739,-7.7477,-7.7511,-7.7093,-7.7092,-7.7091,-7.709,0,-7.6763,-7.6849,-7.6944,-7.699,-7.7034,-7.7145,-7.7104,-7.7155,-7.7109,-7.7092,-7.7217,-7.7224,-7.7283,-7.7316,-7.7272,-7.7467,-7.7428,-7.735,-7.7225,-7.7439,-7.752,-7.7553,-7.7109,-7.7105,-7.7102,-7.7099,0,0,-7.7117,-7.7131,-7.7167,-7.7187,-7.7208,-7.7272,-7.7378,-7.7437,-7.7482,-7.7515,-7.7601,-7.7701,-7.7629,-7.7658,-7.7615,-7.7695,-7.7899,-7.7606,-7.7606,-7.766,-7.8113,-7.8172,-7.8212,-7.7852,-7.7858,-7.7863,-7.8111,0,-7.7363,-7.7546,-7.7498,-7.7679,-7.7758,-7.7662,-7.7753,-7.7775,-7.7762,-7.7826,-7.7809,-7.7882,-7.7781,-7.7798,-7.7873,-7.7859,-7.7989,-7.784,-7.7931,-7.7935,-7.7928,-7.8254,-7.8316,-7.855,-7.8142,-7.8148,-7.8151,0,-7.7675,-7.7723,-7.7913,-7.7921,-7.7952,-7.8036,-7.8086,-7.8148,-7.8171,-7.8155,-7.8189,-7.8129,-7.8232,-7.8108,-7.8247,-7.8147,-7.8181,-7.818,-7.8187,-7.8194,-7.8056,-7.8269,-7.8623,-7.8659,-7.8201,-7.8197,-7.8193,0,-7.7915,-7.8026,-7.8154,-7.8174,-7.8186,-7.8247,-7.8255,-7.8271,-7.831,-7.8353,-7.8377,-7.8432,-7.8462,-7.8505,-7.8462,-7.8376,-7.8608,-7.848,-7.8597,-7.8599,-7.8651,-7.8648,-7.9016,-7.8673,-7.8673,-7.8672,-7.8671,0,-7.8196,-7.8316,-7.8262,-7.8341,-7.8472,-7.8415,-7.8545,-7.8542,-7.8557,-7.8632,-7.8551,-7.8623,-7.8562,-7.8628,-7.8595,-7.8715,-7.8729,-7.8719,-7.8709,-7.8726,-7.8728,-7.8748,-7.873,-7.8681,-7.8679,-7.8677,-7.8676,0,-7.8486,-7.8455,-7.8588,-7.8589,-7.8592,-7.8689,-7.8689,-7.8761,-7.8742,-7.8838,-7.8857,-7.8827,-7.8901,-7.8862,-7.8938,-7.8915,-7.9072,-7.9039,-7.9065,-7.9057,-7.9176,-7.9165,-7.9569,-7.9619,-7.9245,-7.9248,-7.9252,0,-7.8667,-7.8757,-7.8769,-7.8814,-7.8828,-7.8902,-7.8942,-7.8889,-7.8933,-7.8966,-7.9034,-7.9101,-7.9152,-7.9274,-7.9258,-7.9316,-7.9284,-7.9421,-7.9292,-7.9307,-7.9286,-7.9281,-7.929,-7.9448,-7.9452,-7.9455,-7.9458,0,-7.8992,-7.8972,-7.9033,-7.909,-7.914,-7.9182,-7.9216,-7.9257,-7.9205,-7.9259,-7.9334,-7.9374,-7.9452,-7.9519,-7.9569,-7.9574,-7.9509,-7.9499,-7.9529,-7.9549,-7.956,-7.9556,-7.9136,-7.949,-7.9487,-7.9485,-7.9483,-7.9482,-7.9233,-7.9309,-7.9329,-7.94,-7.9421,-7.9455,-7.9523,-7.9513,-7.9575,-7.9636,-7.96,-7.9689,-7.9708,-7.9768,-7.9783,-7.985,-7.9795,-7.9839,-7.985,-7.9861,-7.9878,-7.955,-7.9859,-7.9858,-7.9857,-7.9856,-7.9855,0,-7.9554,-7.9562,-7.9628,-7.968,-7.9736,-7.967,-7.9704,-7.9755,-7.9834,-7.9858,-7.9911,-7.9997,-8.0062,-8.0052,-8.011,-8.0166,-8.0137,-8.0184,-8.0179,-8.0181,-7.9924,-7.9892,-8.0206,-8.0206,-8.0206,-8.0206,-8.0206,-8.0206,-7.9727,-7.9852,-7.9835,-7.9969,-7.9976,-8.0064,-8.0089,-8.012,-8.0139,-8.024,-8.0294,-8.0287,-8.0297,-8.0356,-8.0413,-8.0407,-8.0433,-8.0491,-8.0475,-8.0234,-8.0199,-8.0166,-8.0136,-8.0497,-8.0497,-8.0727,-8.0729,-8.073]}]]